This is the latest recevied weather packets stored in our database for station/object KF6RAL-6. If no packets are shown the sender has not sent any weather packets the latest 10 day(s).
| Time | Temp. | Humidity | Pressure | Rain* | Wind** | Luminosity | Snow |
|---|---|---|---|---|---|---|---|
| 1777713381 | 11.11° C | 59% | 1018.1 hPa | 0 mm | - | - | - |
| 1777712960 | 11.67° C | 53% | 1017.7 hPa | 0 mm | - | - | - |
| 1777712540 | 12.22° C | 56% | 1017.7 hPa | 0 mm | - | - | - |
| 1777712119 | 12.78° C | 47% | 1018.4 hPa | 0 mm | - | - | - |
| 1777711698 | 12.78° C | 41% | 1018.4 hPa | 0 mm | - | - | - |
| 1777711276 | 12.22° C | 40% | 1017.9 hPa | 0 mm | - | - | - |
| 1777710855 | 12.22° C | 46% | 1017.8 hPa | 0 mm | - | - | - |
| 1777710435 | 12.78° C | 43% | 1018.5 hPa | 0 mm | - | - | - |
| 1777710013 | 12.78° C | 42% | 1018.5 hPa | 0 mm | - | - | - |
| 1777709592 | 12.22° C | 49% | 1017.9 hPa | 0 mm | - | - | - |
| 1777709171 | 12.22° C | 47% | 1017.9 hPa | 0 mm | - | - | - |
| 1777708750 | 12.22° C | 49% | 1018 hPa | 0 mm | - | - | - |
| 1777708333 | 12.22° C | 56% | 1017.9 hPa | 0 mm | - | - | - |
| 1777707908 | 11.67° C | 57% | 1018.1 hPa | 0 mm | - | - | - |
| 1777707487 | 11.67° C | 55% | 1018 hPa | 0 mm | - | - | - |
| 1777707066 | 11.67° C | 57% | 1018 hPa | 0 mm | - | - | - |
| 1777706645 | 11.11° C | 58% | 1018.4 hPa | 0 mm | - | - | - |
| 1777706225 | 11.67° C | 56% | 1018.2 hPa | 0 mm | - | - | - |
| 1777705804 | 11.67° C | 56% | 1018.2 hPa | 0 mm | - | - | - |
| 1777705382 | 11.67° C | 59% | 1018.2 hPa | 0 mm | - | - | - |
| 1777704961 | 11.67° C | 52% | 1018.3 hPa | 0 mm | - | - | - |
| 1777704540 | 11.67° C | 58% | 1018.2 hPa | 0 mm | - | - | - |
| 1777704119 | 11.67° C | 56% | 1018 hPa | 0 mm | - | - | - |
| 1777703698 | 12.22° C | 50% | 1018.1 hPa | 0 mm | - | - | - |
| 1777703277 | 12.22° C | 44% | 1018.1 hPa | 0 mm | - | - | - |
* Rain latest hour (hover to see other rain measurements)
** Current wind speed in m/s (hover to see current wind gust speed)